TimePST,TemperatureF,Dew PointF,Humidity,Sea Level PressureIn,VisibilityMPH,Wind Direction,Wind SpeedMPH,Gust SpeedMPH,PrecipitationIn,Events,Conditions,WindDirDegrees,DateUTC
12:00 AM,30.2,26.6,86,30.69,20.0,East,3.5,-,N/A,,Mostly Cloudy,100,2013-11-22 08:00:00
1:00 AM,30.2,26.6,86,30.69,20.0,ESE,3.5,-,N/A,,Mostly Cloudy,110,2013-11-22 09:00:00
2:00 AM,30.2,26.6,86,30.70,20.0,NE,2.3,-,N/A,,Mostly Cloudy,50,2013-11-22 10:00:00
3:00 AM,28.4,24.8,86,30.69,20.0,SE,4.6,-,N/A,,Scattered Clouds,130,2013-11-22 11:00:00
4:00 AM,27,25,88,30.70,19,East,3.5,,,,Scattered Clouds,100,2013-11-22 12:00:00
4:00 AM,26.6,24.8,93,30.69,20.0,East,2.3,-,N/A,,Partly Cloudy,90,2013-11-22 12:00:00
5:00 AM,26.6,24.8,93,30.69,20.0,ESE,5.8,-,N/A,,Partly Cloudy,110,2013-11-22 13:00:00
6:00 AM,28.4,26.6,93,30.68,20.0,Calm,Calm,-,N/A,,Clear,0,2013-11-22 14:00:00
7:00 AM,28.4,24.8,86,30.67,30.0,East,3.5,-,N/A,,Partly Cloudy,80,2013-11-22 15:00:00
8:00 AM,28.4,24.8,86,30.67,30.0,East,3.5,-,N/A,,Partly Cloudy,90,2013-11-22 16:00:00
9:00 AM,32.0,28.4,87,30.67,30.0,Calm,Calm,-,N/A,,Partly Cloudy,0,2013-11-22 17:00:00
10:00 AM,38,32,70,30.66,28,SE,2.3,,,,Clear,130,2013-11-22 18:00:00
10:00 AM,39.2,32.0,75,30.66,30.0,Variable,2.3,-,N/A,,Mostly Cloudy,0,2013-11-22 18:00:00
11:00 AM,39.2,30.2,70,30.64,30.0,ENE,2.3,-,N/A,,Mostly Cloudy,60,2013-11-22 19:00:00
12:00 PM,42.8,32.0,66,30.63,30.0,Calm,Calm,-,N/A,,Scattered Clouds,0,2013-11-22 20:00:00
1:00 PM,42.8,33.8,70,30.61,30.0,WNW,9.2,-,N/A,,Scattered Clouds,290,2013-11-22 21:00:00
2:00 PM,41.0,33.8,76,30.59,30.0,West,5.8,-,N/A,,Overcast,280,2013-11-22 22:00:00
3:00 PM,42.8,33.8,70,30.58,30.0,West,5.8,-,N/A,,Mostly Cloudy,280,2013-11-22 23:00:00
4:00 PM,40,35,75,30.57,28,WNW,8.1,,,,Overcast,300,2013-11-23 00:00:00
4:00 PM,39.2,35.6,87,30.56,30.0,WNW,9.2,-,N/A,,Overcast,300,2013-11-23 00:00:00
5:00 PM,37.4,33.8,87,30.56,30.0,NNW,3.5,-,N/A,,Overcast,330,2013-11-23 01:00:00
5:35 PM,35.6,32.0,87,30.56,30.0,NNW,4.6,-,N/A,,Overcast,340,2013-11-23 01:35:00
6:00 PM,35.6,32.0,87,30.55,20.0,NNW,4.6,-,N/A,,Overcast,340,2013-11-23 02:00:00
7:00 PM,37.4,32.0,81,30.54,30.0,NNE,3.5,-,N/A,,Mostly Cloudy,20,2013-11-23 03:00:00
7:08 PM,35.6,32.0,87,30.54,30.0,NNE,3.5,-,N/A,,Mostly Cloudy,30,2013-11-23 03:08:00
8:00 PM,35.6,32.0,87,30.53,20.0,ESE,3.5,-,N/A,,Mostly Cloudy,110,2013-11-23 04:00:00
9:00 PM,35.6,30.2,81,30.52,30.0,East,4.6,-,N/A,,Overcast,100,2013-11-23 05:00:00
10:00 PM,35,31,82,30.52,28,ESE,4.6,,,,Overcast,110,2013-11-23 06:00:00
10:00 PM,35.6,32.0,87,30.51,30.0,ESE,4.6,-,N/A,,Overcast,110,2013-11-23 06:00:00
11:00 PM,33.8,30.2,87,30.50,20.0,East,6.9,-,N/A,,Overcast,100,2013-11-23 07:00:00